星链-30279 (STARLINK-30279 )

导读

STARLINK-30279是美国太空探索技术公司(SpaceX)于2023年9月16日发射的星链(Starlink)低轨互联网卫星,属于全球规模最大低轨卫星星座的组网成员。它依托星链星座布局,为全球偏远地区、移动场景(房车、船艇、航空)提供低时延高速宽带服务。作为星链大规模部署中的一颗卫星,它进一步扩展了星链星座覆盖范围,助力SpaceX完成全球卫星互联网服务布局,推动卫星互联网商业化应用落地。

基本信息
目录编号:
57885
目录名称:
STARLINK-30279
国际标识:
2023-144X
轨道中心:
EARTH
卫星名称:
星链-30279
卫星全名:
星链-30279 (STARLINK-30279 )
卫星状态:
在轨 (已飞行1006 天)
发射日期:
2023-09-16 UTC
国别 :
美国 (US)
星等 :
--
轨道信息
数据来源 国际轨道数据
星历时间: 2026-06-16T20:05:16+0800
2天前
查看轨道信息
半长轴: 6861.183km
偏心率: 0.000065
轨道倾角: 43.000°
近地点辐角 240.320°
升交点赤经 86.816°
平近点角 119.759°
近地点: 482.6km
远地点: 483.492km
周期: 94.267分钟
每日圈数: 15.275813
详细信息
固有亮度:
5
最大亮度:
0.3
卫星平台:
Starlink v2.0 mini
覆盖范围:
全球
运营商:
太空探索技术公司
运营商所在国:
美国
制造商(研发单位):
太空探索技术公司
制造商所在国:
美国
使用方式:
暂无
卫星简介
星链(Starlink)计划是由太空探索技术公司(SpaceX)提出的一个巨型低轨卫星互联网星座项目,计划在2019年至2024年间在太空搭建由约1.2万颗卫星组成的“星链”网络,其中1584颗将部署在地球上空550千米处的近地轨道,并从2020年开始工作。该卫星仍在工作。
2D轨道图
3D轨道图
轨道高度分析图
轨道倾角分析图
轨道综合分析图
查看轨道综合分析图